CW8593 Weather Reports


Display with metric or nautical units.
time (UTC)temp
F
wind
direction
speed
MPH
gust
MPH
rain 1hr
in
rain 24hr
in
rain mn
in
humidity
%
barometer
mb
20140725033040 75 298 2.0 6.0 0.00 0.00 0.00 60 1010.1
20140725023041 74 300 0.0 2.0 0.00 0.00 0.00 70 1010.4
20140725021042 75 300 2.0 5.0 0.00 0.00 0.00 69 1010.4
20140725020041 75 301 0.0 6.0 0.00 0.00 0.00 69 1010.4
20140725014041 75 300 5.0 7.0 0.00 0.00 0.00 69 1010.9
20140725011042 75 303 2.0 3.0 0.00 0.00 0.00 71 1011.3
20140725010041 75 304 2.0 6.0 0.00 0.00 0.00 72 1011.5
20140725004042 75 304 0.0 1.0 0.00 0.00 0.00 72 1011.5
20140725001042 75 304 3.0 7.0 0.00 0.00 0.00 73 1011.5
20140724234041 75 325 1.0 3.0 0.00 0.00 0.00 73 1011.5
20140724230043 76 342 0.0 3.0 0.00 0.00 0.00 72 1011.6
20140724224040 75 342 0.0 2.0 0.00 0.00 0.00 72 1011.6
20140724223040 75 342 0.0 3.0 0.00 0.00 0.00 72 1011.6
20140724213040 76 342 2.0 6.0 0.00 0.00 0.00 74 1011.3
20140724211042 77 319 0.0 3.0 0.00 0.00 0.00 74 1011.4
20140724210041 77 319 1.0 5.0 0.00 0.00 0.00 73 1011.3
20140724203041 77 52 0.0 5.0 0.00 0.00 0.00 73 1011.0
20140724201041 78 52 2.0 5.0 0.00 0.00 0.00 73 1011.1
20140724191040 78 111 0.0 3.0 0.00 0.00 0.00 73 1011.1
20140724190041 78 110 1.0 5.0 0.00 0.00 0.00 74 1011.0
20140724183040 79 90 3.0 7.0 0.00 0.00 0.00 71 1010.1
20140724181039 79 133 0.0 5.0 0.00 0.00 0.00 69 1010.4
20140724174042 79 157 2.0 5.0 0.00 0.00 0.00 67 1010.4
20140724163039 81 167 2.0 9.0 0.00 0.00 0.00 63 1010.6
20140724160042 81 153 5.0 12.0 0.00 0.00 0.00 61 1010.6
20140724154041 82 162 5.0 9.0 0.00 0.00 0.00 62 1010.6
20140724151042 82 133 7.0 12.0 0.00 0.00 0.00 57 1010.7
20140724141041 83 184 4.0 10.0 0.00 0.00 0.00 56 1011.0
20140724140041 82 155 6.0 12.0 0.00 0.00 0.00 56 1011.2
20140724133039 83 154 5.0 12.0 0.00 0.00 0.00 55 1011.2
20140724124042 83 175 5.0 13.0 0.00 0.00 0.00 61 1011.1
20140724123043 82 207 5.0 15.0 0.00 0.00 0.00 60 1011.1
20140724121040 82 135 6.0 13.0 0.00 0.00 0.00 61 1011.1
20140724120040 82 193 4.0 12.0 0.00 0.00 0.00 62 1011.1
20140724114041 82 196 6.0 12.0 0.00 0.00 0.00 62 1011.2
20140724101042 80 132 5.0 12.0 0.00 0.00 0.00 73 1011.3
20140724090040 80 153 9.0 14.0 0.00 0.00 0.00 70 1011.0
20140724084040 80 115 7.0 12.0 0.00 0.00 0.00 70 1010.9
20140724083040 80 187 6.0 10.0 0.00 0.00 0.00 68 1010.9
20140724081044 80 131 1.0 8.0 0.00 0.00 0.00 69 1011.1
20140724080044 79 189 4.0 7.0 0.00 0.00 0.00 70 1011.1
20140724074041 79 188 2.0 3.0 0.00 0.00 0.00 72 1011.1
20140724073040 78 188 1.0 3.0 0.00 0.00 0.00 73 1011.2
20140724063040 76 287 0.0 2.0 0.00 0.00 0.00 64 1010.9
20140724061040 75 287 0.0 1.0 0.00 0.00 0.00 64 1010.7
20140724060040 75 287 0.0 0.0 0.00 0.00 0.00 65 1010.6
20140724054040 72 287 0.0 0.0 0.00 0.00 0.00 71 1010.5
20140724044040 69 287 0.0 0.0 0.00 0.00 0.00 71 1010.3
20140724040040 70 287 0.0 3.0 0.00 0.00 0.00 71 1010.3
20140724034040 69 287 3.0 5.0 0.00 0.00 0.00 71 1010.2